Theta_e
322 323 322 320 320 320 318 317 316 317 316 317 315 316 316 317 313 314 314 314 313 312 312 313 312 312 311 311 310 309 308 307 307 307 308 307 306 305 303 302 302 301
321 321 320 320 319 318 317 318 316 317 316 316 317 317 316 313 311 313 312 310 307 306 308 309 310 310 310 309 308 307 306 305 304 305 305 304 302 301 299 299 297 297
319 319 318 318 319 317 317 316 317 317 316 315 315 314 311 310 309 310 310 308 305 305 305 306 307 308 308 307 306 305 304 301 299 299 299 298 298 297 295 295 294 295
317 318 318 318 319 317 316 315 315 315 313 311 311 310 309 308 309 308 307 304 305 304 304 304 304 305 305 304 303 301 297 296 296 295 293 293 293 293 292 291 290 289
316 316 317 318 317 316 315 314 313 312 311 312 309 306 305 306 306 305 305 304 304 302 302 302 301 301 301 300 299 294 293 293 294 294 293 291 290 290 289 289 289 288
313 315 315 316 315 314 314 314 313 312 310 308 307 304 306 306 305 304 302 301 300 301 300 299 298 297 298 296 294 293 291 291 291 291 290 289 287 288 288 288 288 287
311 312 313 314 314 314 313 313 312 310 310 309 304 304 304 303 302 302 301 300 300 299 300 298 296 294 294 293 292 291 291 290 290 290 288 287 286 286 287 288 287 286
310 311 312 312 312 311 311 311 309 308 306 303 303 302 302 302 301 300 300 299 299 299 298 297 295 293 292 293 291 290 289 290 289 288 287 286 287 286 286 287 287 286
307 307 308 308 308 307 307 306 304 303 301 302 300 298 300 301 300 299 298 299 298 297 297 295 295 293 292 293 291 290 288 288 288 287 287 286 286 286 286 286 286 285
303 302 303 303 304 303 302 300 299 299 298 299 298 298 298 297 298 298 297 297 296 294 295 294 293 292 291 291 290 289 288 287 287 287 287 287 286 286 285 286 285 285
299 299 301 300 300 299 298 297 297 297 297 297 297 297 296 295 294 295 296 296 295 294 294 293 292 291 290 289 288 288 287 286 286 286 286 286 286 286 285 285 285 285
297 297 298 298 297 297 296 296 295 296 296 296 297 296 294 294 294 294 295 295 294 293 293 292 291 290 289 288 287 287 286 286 286 286 285 285 285 285 285 285 285 284
296 297 297 296 296 295 294 294 294 294 294 294 294 294 294 294 293 294 293 294 292 292 291 290 289 288 287 287 286 286 286 285 285 285 285 285 285 285 285 284 284 284
295 294 294 294 293 292 293 293 293 293 293 293 293 294 294 294 293 293 291 292 291 290 289 288 287 287 286 286 286 286 285 285 285 284 284 284 284 284 284 284 283 283
292 292 292 291 291 292 292 292 292 292 292 292 292 293 293 292 292 291 290 289 288 288 287 287 287 286 286 286 286 285 286 285 284 284 283 283 283 283 283 283 283 283
291 292 291 291 291 291 291 291 291 291 291 291 291 291 290 290 290 289 289 288 287 286 286 286 286 286 285 287 287 285 285 285 284 284 283 283 282 282 282 282 282 282
290 291 291 291 291 291 291 291 290 291 291 290 289 289 289 288 289 288 287 287 286 286 285 286 286 286 287 288 288 287 285 284 284 283 283 282 282 282 281 281 281 281
291 290 290 290 290 290 290 290 289 289 289 289 288 287 287 287 287 286 285 285 285 285 285 285 286 287 289 289 288 287 285 284 284 283 283 282 282 281 281 281 281 280
290 290 290 290 290 289 289 288 288 288 287 287 287 287 286 286 285 284 284 284 285 285 285 286 287 289 290 289 288 287 286 284 283 283 282 282 281 281 281 281 280 280
290 290 290 290 289 288 288 287 287 287 287 287 286 285 285 285 284 283 283 284 284 285 285 287 288 289 289 288 288 287 286 284 282 282 281 281 281 281 281 280 280 280
290 290 290 289 288 287 287 287 287 286 286 285 285 285 284 283 283 282 282 283 284 285 286 286 287 289 288 288 287 287 285 283 282 281 281 281 281 281 280 280 280 280
290 290 289 288 287 287 287 287 286 285 285 284 283 283 283 282 282 282 281 282 283 284 285 285 287 288 288 287 287 286 285 281 281 281 280 280 280 280 280 280 280 280
290 290 289 288 287 286 286 286 285 284 283 282 282 282 281 281 281 280 281 282 282 284 284 285 286 287 287 287 287 286 283 281 281 280 280 279 279 279 279 280 280 280
289 289 288 287 286 286 286 285 285 284 283 282 282 281 281 280 280 279 280 281 282 283 284 284 284 285 287 286 286 284 282 281 280 280 279 279 279 279 279 279 280 280
288 288 287 286 286 286 286 284 283 283 281 280 281 281 280 279 279 279 279 279 280 281 281 283 283 284 286 286 285 284 282 281 280 279 279 278 278 278 279 279 279 279
286 286 286 286 285 285 284 284 282 280 280 280 279 279 278 278 278 278 277 278 278 280 281 282 283 283 284 285 285 284 283 280 280 279 278 278 278 278 277 278 278 278
Wind_Speed
11 10 10 9 10 9 9 10 9 10 10 9 9 9 9 8 6 8 7 7 8 9 7 8 8 8 7 6 7 5 5 7 6 5 7 7 6 8 8 7 6 6
11 10 9 8 7 7 8 9 10 10 10 10 9 8 6 7 7 8 8 8 7 7 7 7 8 9 9 7 6 7 6 6 7 4 7 8 7 7 8 8 7 7
9 9 9 10 9 10 10 9 9 9 9 9 7 7 7 7 9 7 8 8 9 8 7 7 7 8 8 7 7 7 7 8 8 5 8 8 6 7 6 7 7 7
9 10 9 10 9 9 9 8 7 7 6 6 8 8 8 8 9 9 8 9 9 7 7 7 8 8 8 8 8 7 8 8 7 9 8 5 5 7 7 7 7 6
8 8 8 8 7 8 9 9 9 8 9 9 7 7 8 8 9 9 9 8 8 8 8 8 8 8 8 7 8 10 9 8 6 8 7 7 6 7 6 7 8 8
6 7 7 8 8 9 9 10 10 10 9 8 10 9 9 10 10 11 10 10 7 9 9 9 9 7 7 8 10 10 9 8 8 8 8 7 7 5 5 6 8 7
8 8 8 8 9 9 10 10 10 10 10 10 9 9 10 10 10 10 11 11 10 9 11 10 10 9 8 10 10 9 8 8 8 9 9 6 8 8 5 7 7 7
8 7 8 8 9 9 10 9 9 9 8 8 10 9 10 11 11 10 10 11 11 10 9 9 10 10 10 10 10 9 8 7 8 9 8 8 8 7 6 6 6 8
5 6 6 7 8 7 8 7 7 7 8 10 9 9 7 10 11 11 10 10 10 10 10 10 11 10 9 10 9 9 9 8 8 10 10 10 9 8 7 7 7 7
6 5 6 6 7 6 7 5 6 7 7 8 9 9 9 7 8 11 11 11 10 10 10 10 10 10 9 9 10 10 9 8 8 8 8 9 10 9 8 7 7 8
5 5 6 6 6 5 6 7 7 7 7 9 9 9 8 10 7 7 10 10 11 11 11 11 11 10 10 9 9 9 9 9 8 8 8 8 8 7 7 7 7 7
5 5 6 6 7 6 8 8 8 7 8 7 9 10 8 8 11 9 10 10 9 10 10 10 9 10 10 11 10 9 7 7 7 7 7 7 7 7 6 6 7 7
6 6 6 6 7 7 7 7 7 7 8 10 7 9 11 9 7 9 7 9 9 9 9 10 10 9 10 10 10 9 8 8 7 7 7 6 6 7 6 6 6 6
5 5 6 6 5 5 6 7 7 7 6 6 8 9 8 10 11 9 7 7 8 8 8 9 10 9 9 10 10 8 8 7 8 8 8 8 7 6 6 6 6 6
4 4 4 5 5 6 6 6 5 6 6 7 6 7 6 8 8 10 10 9 8 8 9 8 9 9 9 9 9 8 7 8 8 8 9 9 8 7 6 6 6 5
4 5 5 5 6 7 6 7 7 7 7 7 7 7 7 8 8 8 9 11 10 8 8 7 7 7 9 12 8 9 8 7 7 8 8 8 9 8 7 6 6 6
5 5 7 8 7 7 7 7 8 8 8 8 8 8 9 9 9 9 8 8 8 9 9 7 7 7 14 13 13 12 9 8 9 8 8 8 7 8 8 7 6 6
7 7 6 6 7 7 7 7 7 7 7 8 9 8 7 8 9 9 9 8 7 8 9 8 7 11 14 14 14 14 10 8 8 8 7 7 7 7 7 7 7 6
6 7 7 7 7 7 7 6 7 6 6 7 8 8 9 9 9 9 9 9 9 11 10 9 9 14 15 15 15 15 14 10 7 7 8 7 7 7 8 7 7 6
7 7 8 7 7 7 7 7 7 8 7 7 8 8 9 10 9 11 10 9 9 10 10 10 10 13 16 16 15 15 15 10 7 8 7 7 8 7 7 7 6 6
8 8 8 8 8 7 7 8 8 7 8 7 7 9 10 10 10 10 9 8 10 9 10 10 8 15 15 16 16 16 16 11 8 7 7 7 6 6 6 6 6 5
9 8 8 8 9 8 8 9 8 9 10 7 7 6 5 7 6 7 10 10 9 10 11 9 10 15 15 16 17 16 16 8 7 8 7 7 6 6 6 5 6 6
9 9 9 9 8 8 8 8 9 8 7 7 8 8 9 9 9 8 8 10 11 10 12 11 10 14 16 17 17 18 12 6 6 6 6 7 6 6 6 6 6 6
8 8 7 7 8 9 8 7 5 4 7 7 10 10 10 9 8 8 7 8 11 11 11 12 10 13 17 17 18 17 11 8 7 7 6 6 7 6 5 5 6 8
7 6 7 8 9 8 7 9 8 7 5 5 5 6 7 6 7 8 7 6 6 9 11 12 10 12 16 17 17 17 11 6 6 6 7 6 6 6 6 5 6 6
6 7 7 8 8 6 5 5 5 6 7 6 5 5 6 6 6 6 9 7 6 8 9 9 11 9 12 17 16 16 14 7 5 7 7 7 7 7 7 5 5 5
Wind_Direction
212 208 207 202 203 198 185 188 190 189 189 191 187 192 193 188 164 171 165 151 151 146 149 148 136 126 127 129 130 127 128 129 126 130 125 125 126 129 126 125 119 122
212 208 204 199 198 191 189 190 186 187 189 190 191 188 175 156 170 161 155 145 137 137 142 137 140 141 140 138 141 134 130 127 120 125 127 126 131 123 121 122 119 123
206 203 197 198 197 193 189 188 186 190 185 189 181 171 167 164 157 163 149 147 143 141 140 138 136 133 131 137 141 134 133 119 108 95 98 121 131 114 123 122 123 128
203 199 198 199 195 190 183 179 187 183 166 162 178 174 164 163 158 151 144 141 138 135 135 133 131 119 129 135 131 119 101 91 115 100 100 109 112 125 130 126 124 115
200 198 197 193 189 181 175 182 183 180 179 179 159 154 153 153 153 146 144 142 140 138 137 132 122 129 132 130 125 109 100 121 137 134 133 130 129 128 132 125 118 108
200 197 192 188 183 178 182 186 185 182 177 164 172 163 164 160 156 153 149 144 146 144 138 134 126 109 119 119 98 113 134 139 146 138 130 130 129 120 129 121 115 110
193 190 192 189 185 185 185 189 186 181 179 175 154 167 159 158 154 155 151 148 149 152 145 144 134 116 128 118 133 140 145 145 151 140 128 123 126 119 116 116 115 112
196 193 191 187 188 187 190 188 180 178 168 150 169 164 164 157 155 154 152 150 151 152 146 142 142 147 150 145 144 146 145 150 147 136 126 129 130 123 128 119 122 120
191 193 187 188 186 187 186 178 172 160 157 161 157 158 165 159 154 155 155 153 149 150 145 147 150 154 157 149 146 145 144 148 150 143 140 138 136 136 135 137 122 118
182 177 178 181 183 177 169 157 151 150 154 154 155 154 155 154 154 153 152 151 149 151 154 152 153 153 153 149 147 147 149 147 148 144 141 138 134 138 141 137 131 121
171 170 171 172 165 155 156 151 154 153 156 156 152 155 156 148 146 150 147 150 154 158 157 156 157 153 146 140 139 145 147 146 144 136 135 128 128 130 136 133 129 123
167 164 169 166 158 159 160 160 156 158 156 157 159 150 151 156 151 157 157 157 156 156 152 150 149 151 146 143 143 141 139 135 131 127 123 120 121 121 123 123 123 126
167 171 165 163 166 162 154 153 158 157 157 159 160 153 152 151 154 148 152 147 145 143 149 149 150 146 141 139 139 138 138 135 129 121 118 112 112 115 113 111 113 121
173 162 161 160 149 144 153 156 151 153 152 142 145 149 153 153 151 148 137 138 144 147 146 146 145 141 135 137 139 141 140 136 131 128 123 115 112 108 109 111 115 119
156 143 129 133 137 137 138 138 138 135 135 142 144 139 138 142 138 139 136 134 137 143 146 147 146 146 146 144 141 140 142 134 134 130 127 124 117 112 110 112 114 112
149 143 140 134 140 145 148 148 146 143 143 142 140 137 134 134 134 139 144 147 144 140 141 144 143 141 145 145 143 144 140 131 124 127 128 127 126 122 119 117 114 115
152 156 150 156 159 153 149 152 150 148 147 140 135 139 141 143 141 141 139 141 142 144 145 145 142 140 143 143 143 139 132 134 134 131 130 129 132 134 136 133 124 119
165 156 158 156 151 152 153 148 141 143 145 144 142 142 143 139 142 142 137 139 140 142 145 143 136 143 141 138 139 139 138 132 133 133 135 135 139 138 137 135 135 131
161 161 159 159 162 154 152 147 149 149 149 151 153 148 140 148 145 141 143 145 149 148 141 138 135 143 136 138 139 140 138 130 130 129 132 137 140 141 141 141 139 137
166 166 165 165 158 156 155 158 159 163 161 155 145 147 153 148 148 149 150 152 152 145 135 135 135 142 138 139 138 137 136 130 125 127 128 134 140 141 142 143 146 145
168 171 168 162 163 162 165 169 167 159 161 161 156 159 159 159 155 153 155 152 151 148 134 134 138 144 142 141 140 138 134 128 125 122 124 129 132 135 138 141 142 146
172 176 171 168 168 170 174 176 170 166 163 152 150 144 137 137 143 149 155 155 152 144 136 134 145 146 144 144 143 139 134 127 128 129 130 132 131 135 136 136 142 149
180 178 176 172 173 174 181 177 168 166 161 154 150 158 156 162 160 158 158 154 152 150 142 140 146 150 148 148 146 143 135 130 130 128 131 133 138 139 138 142 154 160
180 176 172 172 174 184 181 173 163 149 162 169 166 164 165 162 151 146 158 161 154 153 151 146 149 153 151 152 151 150 146 142 144 136 131 135 138 143 145 150 156 163
175 176 175 175 182 185 176 170 172 167 151 148 147 147 147 141 148 149 150 154 152 144 146 145 148 154 156 156 156 155 148 135 139 136 139 148 149 150 158 157 162 170
176 179 178 178 179 167 161 161 141 138 153 151 141 139 140 144 146 152 151 152 148 145 149 151 150 154 159 160 160 159 156 143 143 145 154 155 157 157 157 167 171 175